This is the latest recevied weather packets stored in our database for station/object DB0WUN-13. If no packets are shown the sender has not sent any weather packets the latest 1 day(s).
| Time | Temp. | Humidity | Pressure | Rain* | Wind** | Luminosity | Snow |
|---|---|---|---|---|---|---|---|
| 1778047798 | 11.11° C | 89% | 1007.5 hPa | 0 mm | 0.89 m/s, 217° | 118 W/m² | - |
| 1778047734 | 11.11° C | 88% | 1007.6 hPa | 0 mm | 0.89 m/s, 210° | 105 W/m² | - |
| 1778047670 | 11.11° C | 88% | 1007.5 hPa | 0 mm | 0.89 m/s, 208° | 105 W/m² | - |
| 1778047616 | 11.11° C | 88% | 1007.6 hPa | 0 mm | 0.89 m/s, 207° | 84 W/m² | - |
| 1778047548 | 11.11° C | 88% | 1007.6 hPa | 0 mm | 0.89 m/s, 216° | 81 W/m² | - |
| 1778047486 | 11.11° C | 88% | 1007.5 hPa | 0 mm | 0.89 m/s, 211° | 91 W/m² | - |
| 1778047435 | 11.11° C | 88% | 1007.6 hPa | 0 mm | 0.89 m/s, 209° | 76 W/m² | - |
| 1778047366 | 11.11° C | 88% | 1007.6 hPa | 0 mm | 0.45 m/s, 217° | 76 W/m² | - |
| 1778047305 | 11.11° C | 88% | 1007.6 hPa | 0 mm | 0.45 m/s, 189° | 77 W/m² | - |
| 1778047240 | 11.11° C | 88% | 1007.6 hPa | 0 mm | 0.45 m/s, 212° | 67 W/m² | - |
| 1778047182 | 11.11° C | 88% | 1007.6 hPa | 0 mm | 0.45 m/s, 212° | 60 W/m² | - |
| 1778047121 | 11.11° C | 88% | 1007.7 hPa | 0 mm | 0.45 m/s, 205° | 53 W/m² | - |
| 1778047060 | 11.11° C | 88% | 1007.6 hPa | 0 mm | 0.45 m/s, 217° | 49 W/m² | - |
| 1778046998 | 11.11° C | 88% | 1007.6 hPa | 0 mm | 0.89 m/s, 217° | 54 W/m² | - |
| 1778046936 | 11.11° C | 88% | 1007.6 hPa | 0 mm | 0.89 m/s, 217° | 62 W/m² | - |
| 1778046875 | 11.11° C | 88% | 1007.6 hPa | 0 mm | 0.89 m/s, 217° | 65 W/m² | - |
| 1778046813 | 11.11° C | 88% | 1007.7 hPa | 0 mm | 0.89 m/s, 217° | 63 W/m² | - |
| 1778046752 | 11.11° C | 88% | 1007.6 hPa | 0 mm | 1.34 m/s, 217° | 69 W/m² | - |
| 1778046701 | 11.11° C | 88% | 1007.6 hPa | 0 mm | 1.34 m/s, 217° | 60 W/m² | - |
| 1778046634 | 11.11° C | 88% | 1007.6 hPa | 0 mm | 1.34 m/s, 217° | 51 W/m² | - |
| 1778046577 | 11.11° C | 88% | 1007.6 hPa | 0 mm | 1.34 m/s, 237° | 56 W/m² | - |
| 1778046511 | 11.11° C | 88% | 1007.5 hPa | 0 mm | 1.34 m/s, 257° | 65 W/m² | - |
| 1778046452 | 11.11° C | 88% | 1007.5 hPa | 0 mm | 1.34 m/s, 227° | 58 W/m² | - |
| 1778046390 | 11.11° C | 88% | 1007.5 hPa | 0 mm | 1.34 m/s, 239° | 49 W/m² | - |
| 1778046332 | 11.11° C | 88% | 1007.6 hPa | 0 mm | 1.34 m/s, 220° | 46 W/m² | - |
* Rain latest hour (hover to see other rain measurements)
** Current wind speed in m/s (hover to see current wind gust speed)